Surface/Precipitation History
12/06/2017 18:30  to  12/7/2017 18:30
Change End Date:
Date/Time
(MST)
Sf
Temp Chem Water Layer Surface Precipitation
Sfc Pvt Sub Frz Factor Pct Dpth DpthThk IcePct Cond Salin FI Type Intens Accum Rate
12/07/2017 18:28 Ice Watch 25.5F - 32F - 5 - - - - 0 mhos 27 - None None - -
12/07/2017 18:24 Ice Watch 25.5F - 32F - 5 - - - - 0 mhos 29 - None None - -
12/07/2017 18:18 Ice Watch 25.7F - 32F - 5 - - - - 0 mhos 44 - None None - -
12/07/2017 18:09 Ice Watch 25.9F - 32F - 5 - - - - 0 mhos 12 - None None - -
12/07/2017 18:08 Ice Watch 26.1F - 32F - 5 - - - - 0 mhos 8 - None None - -
12/07/2017 17:58 Ice Watch 26.2F - 32F - 5 - - - - 0 mhos 2 - None None - -
12/07/2017 17:54 Ice Watch 26.2F - 32F - 5 - - - - 0 mhos 2 - None None - -
12/07/2017 17:48 Ice Watch 26.2F - 32F - 5 - - - - 0 mhos 1 - None None - -
12/07/2017 17:39 Ice Watch 27.0F - 32F - 5 - - - - 0 mhos 1 - None None - -
12/07/2017 17:38 Ice Watch 27.0F - 32F - 5 - - - - 0 mhos 1 - None None - -
12/07/2017 17:28 Ice Watch 27.3F - 32F - 5 - - - - 0 mhos 1 - None None - -
12/07/2017 17:24 Ice Watch 27.5F - 32F - 5 - - - - 0 mhos 1 - None None - -
12/07/2017 17:17 Ice Watch 28.0F - 32F - 5 - - - - 0 mhos 1 - None None - -
12/07/2017 17:08 Ice Watch 28.2F - 32F - 5 - - - - 0 mhos 1 - None None - -
12/07/2017 17:07 Ice Watch 28.2F - 32F - 5 - - - - 0 mhos 1 - None None - -
Date/Time
(MST)
Sf
Temp Chem Water Layer Surface Precipitation
Sfc Pvt Sub Frz Factor Pct Dpth DpthThk IcePct Cond Salin FI Type Intens Accum Rate
12/07/2017 16:57 Ice Watch 28.6F - 32F - 5 - - - - 0 mhos 1 - None None - -
12/07/2017 16:53 Ice Watch 28.8F - 32F - 5 - - - - 0 mhos 1 - None None - -
12/07/2017 16:47 Ice Watch 29.1F - 32F - 5 - - - - 0 mhos 1 - None None - -
12/07/2017 16:39 Ice Watch 29.5F - 32F - 5 - - - - 0 mhos 1 - None None - -
12/07/2017 16:37 Ice Watch 29.5F - 32F - 5 - - - - 0 mhos 1 - None None - -
12/07/2017 16:27 Ice Watch 30.0F - 32F - 5 - - - - 0 mhos 1 - None None - -
12/07/2017 16:24 Ice Watch 30.2F - 32F - 5 - - - - 0 mhos 1 - None None - -
12/07/2017 16:17 Ice Watch 30.9F - 32F - 5 - - - - 0 mhos 1 - None None - -
12/07/2017 16:09 Ice Watch 31.5F - 32F - 5 - - - - 0 mhos 1 - None None - -
12/07/2017 16:07 Ice Watch 31.5F - 32F - 5 - - - - 0 mhos 1 - None None - -
12/07/2017 15:57 Trace Moisture 32.0F - 31F - 5 - - - - 0 mhos 1 - None None - -
12/07/2017 15:54 Trace Moisture 32.0F - 31F - 5 - - - - 0 mhos 1 - None None - -
12/07/2017 15:47 Trace Moisture 32.2F - 31F - 5 - - - - 0 mhos 1 - None None - -
12/07/2017 15:39 Trace Moisture 32.5F - 31F - 5 - - - - 0 mhos 1 - None None - -
12/07/2017 15:37 Trace Moisture 32.7F - 31F - 5 - - - - 0 mhos 1 - None None - -
Date/Time
(MST)
Sf
Temp Chem Water Layer Surface Precipitation
Sfc Pvt Sub Frz Factor Pct Dpth DpthThk IcePct Cond Salin FI Type Intens Accum Rate
12/07/2017 15:27 Trace Moisture 33.4F - 31F - 5 - - - - 0 mhos 1 - None None - -
12/07/2017 15:24 Trace Moisture 33.6F - 31F - 5 - - - - 0 mhos 1 - None None - -
12/07/2017 15:17 Trace Moisture 33.8F - 31F - 5 - - - - 0 mhos 1 - None None - -
12/07/2017 15:09 Trace Moisture 34.3F - 31F - 5 - - - - 0 mhos 1 - None None - -
12/07/2017 15:07 Dry 34.7F - 31F - - - - - - 0 mhos 1 - None None - -
12/07/2017 14:57 Dry 34.9F - 31F - - - - - - 0 mhos 1 - None None - -
12/07/2017 14:54 Dry 35.2F - 31F - - - - - - 0 mhos 1 - None None - -
12/07/2017 14:47 Dry 36.0F - 31F - - - - - - 0 mhos 1 - None None - -
12/07/2017 14:39 Dry 36.7F - 31F - - - - - - 0 mhos 1 - None None - -
12/07/2017 14:37 Dry 36.7F - 31F - - - - - - 0 mhos 1 - None None - -
12/07/2017 14:27 Dry 36.5F - 31F - - - - - - 0 mhos 1 - None None - -
12/07/2017 14:24 Dry 36.7F - 31F - - - - - - 0 mhos 1 - None None - -
12/07/2017 14:17 Dry 37.4F - 31F - - - - - - 0 mhos 1 - None None - -
12/07/2017 14:09 Dry 37.4F - 31F - - - - - - 0 mhos 1 - None None - -
12/07/2017 14:07 Dry 37.6F - 31F - - - - - - 0 mhos 1 - None None - -
Date/Time
(MST)
Sf
Temp Chem Water Layer Surface Precipitation
Sfc Pvt Sub Frz Factor Pct Dpth DpthThk IcePct Cond Salin FI Type Intens Accum Rate
12/07/2017 13:57 Dry 37.8F - 31F - - - - - - 0 mhos 1 - None None - -
12/07/2017 13:54 Dry 37.8F - 31F - - - - - - 0 mhos 1 - None None - -
12/07/2017 13:47 Dry 37.4F - 31F - - - - - - 0 mhos 1 - None None - -
12/07/2017 13:39 Dry 37.6F - 31F - - - - - - 0 mhos 1 - None None - -
12/07/2017 13:37 Dry 37.6F - 31F - - - - - - 0 mhos 1 - None None - -
12/07/2017 13:27 Dry 37.4F - 31F - - - - - - 0 mhos 1 - None None - -
12/07/2017 13:24 Dry 37.0F - 31F - - - - - - 0 mhos 1 - None None - -
12/07/2017 13:17 Dry 36.9F - 31F - - - - - - 0 mhos 1 - None None - -
12/07/2017 13:09 Dry 36.5F - 31F - - - - - - 0 mhos 1 - None None - -
12/07/2017 13:07 Dry 36.1F - 31F - - - - - - 0 mhos 1 - None None - -
12/07/2017 12:57 Trace Moisture 36.1F - 31F - 5 - - - - 0 mhos 1 - None None - -
12/07/2017 12:53 Trace Moisture 36.1F - 31F - 5 - - - - 0 mhos 1 - None None - -
12/07/2017 12:47 Trace Moisture 36.0F - 31F - 55 - - - - 0 mhos 1 - None None - -
12/07/2017 12:38 Dry 36.3F - 31F - - - - - - 0 mhos 1 - None None - -
12/07/2017 12:37 Dry 36.1F - 31F - - - - - - 0 mhos 1 - None None - -
Date/Time
(MST)
Sf
Temp Chem Water Layer Surface Precipitation
Sfc Pvt Sub Frz Factor Pct Dpth DpthThk IcePct Cond Salin FI Type Intens Accum Rate
12/07/2017 12:27 Dry 36.1F - 31F - - - - - - 0 mhos 2 - None None - -
12/07/2017 12:24 Dry 36.1F - 31F - - - - - - 0 mhos 2 - None None - -
12/07/2017 12:17 Dry 36.1F - 31F - - - - - - 0 mhos 3 - None None - -
12/07/2017 12:08 Dry 36.3F - 31F - - - - - - 0 mhos 3 - None None - -
12/07/2017 12:07 Dry 36.3F - 31F - - - - - - 0 mhos 4 - None None - -
12/07/2017 11:57 Dry 36.1F - 31F - - - - - - 0 mhos 6 - None None - -
12/07/2017 11:54 Dry 36.1F - 31F - - - - - - 0 mhos 6 - None None - -
12/07/2017 11:46 Dry 36.1F - 31F - - - - - - 0 mhos 9 - None None - -
12/07/2017 11:38 Dry 36.0F - 31F - - - - - - 0 mhos 14 - None None - -
12/07/2017 11:36 Dry 36.0F - 31F - - - - - - 0 mhos 15 - None None - -
12/07/2017 11:26 Dry 36.1F - 30F - - - - - - 0 mhos 23 - None None - -
12/07/2017 11:23 Dry 36.1F - 30F - - - - - - 0 mhos 26 - None None - -
12/07/2017 11:16 Dry 36.0F - 30F - - - - - - 0 mhos 36 - None None - -
12/07/2017 11:09 Dry 35.4F - 30F - - - - - - 0 mhos 44 - None None - -
12/07/2017 11:06 Dry 35.4F - 30F - - - - - - 0 mhos 46 - None None - -
Date/Time
(MST)
Sf
Temp Chem Water Layer Surface Precipitation
Sfc Pvt Sub Frz Factor Pct Dpth DpthThk IcePct Cond Salin FI Type Intens Accum Rate
12/07/2017 10:56 Dry 35.4F - 30F - - - - - - 1 mhos 56 - None None - -
12/07/2017 10:53 Dry 35.8F - 30F - - - - - - 1 mhos 59 - None None - -
12/07/2017 10:46 Dry 36.1F - 30F - - - - - - 1 mhos 67 - None None - -
12/07/2017 10:38 Dry 36.1F - 30F - - - - - - 1 mhos 75 - None None - -
12/07/2017 10:36 Dry 35.8F - 30F - - - - - - 1 mhos 77 - None None - -
12/07/2017 10:26 Dry 34.5F - 30F - - - - - - 1 mhos 68 - None None - -
12/07/2017 10:23 Dry 34.3F - 30F - - - - - - 1 mhos 75 - None None - -
12/07/2017 10:16 Dry 33.8F - 30F - - - - - - 1 mhos 86 - None None - -
12/07/2017 10:08 Dry 33.1F - 30F - - - - - - 1 mhos 91 - None None - -
12/07/2017 10:06 Dry 32.9F - 30F - - - - - - 1 mhos 89 - None None - -
12/07/2017 09:56 Dry 31.8F - 30F - - - - - - 1 mhos 89 - None None - -
12/07/2017 09:54 Dry 31.6F - 30F - - - - - - 1 mhos 92 - None None - -
12/07/2017 09:46 Dry 31.5F - 30F - - - - - - 1 mhos 96 - None None - -
12/07/2017 09:38 Dry 30.2F - 30F - - - - - - 1 mhos 109 - None None - -
12/07/2017 09:36 Dry 30.0F - 30F - - - - - - 1 mhos 111 - None None - -
Date/Time
(MST)
Sf
Temp Chem Water Layer Surface Precipitation
Sfc Pvt Sub Frz Factor Pct Dpth DpthThk IcePct Cond Salin FI Type Intens Accum Rate
12/07/2017 09:26 Ice Warning 27.9F - 29F 32F 5 0% - - 98% 1 mhos 133 - None None - -
12/07/2017 09:23 Ice Warning 27.1F - 30F 32F 5 0% - - 98% 1 mhos 139 - None None - -
12/07/2017 09:16 Ice Warning 26.6F - 29F 32F 5 0% - - 99% 1 mhos 143 - None None - -
12/07/2017 09:08 Ice Warning 25.5F - 30F 32F 5 1% - - 99% 1 mhos 151 - None None - -
12/07/2017 09:06 Ice Warning 25.0F - 29F 32F 5 1% - - 99% 1 mhos 155 - None None - -
12/07/2017 08:56 Ice Warning 24.6F - 29F 32F 5 1% - - 99% 1 mhos 155 - None None - -
12/07/2017 08:53 Ice Warning 24.6F - 29F 32F 5 1% - - 99% 1 mhos 155 - None None - -
12/07/2017 08:46 Ice Warning 24.3F - 29F 32F 5 1% - - 99% 1 mhos 159 - None None - -
12/07/2017 08:38 Ice Warning 23.9F - 29F 32F 5 1% - - 99% 1 mhos 161 - None None - -
12/07/2017 08:36 Ice Warning 23.5F - 29F 32F 5 1% - - 99% 1 mhos 164 - None None - -
12/07/2017 08:26 Ice Warning 22.5F - 29F 32F 5 1% - - 99% 1 mhos 167 - None None - -
12/07/2017 08:23 Ice Warning 22.3F - 29F 32F 5 1% - - 99% 1 mhos 167 - None None - -
12/07/2017 08:16 Ice Warning 21.4F - 29F 32F 5 1% - - 99% 1 mhos 170 - None None - -
12/07/2017 08:08 Ice Warning 20.8F - 29F 32F 5 1% - - 99% 1 mhos 170 - None None - -
12/07/2017 08:06 Ice Warning 20.7F - 29F 32F 5 1% - - 99% 1 mhos 171 - None None - -
Date/Time
(MST)
Sf
Temp Chem Water Layer Surface Precipitation
Sfc Pvt Sub Frz Factor Pct Dpth DpthThk IcePct Cond Salin FI Type Intens Accum Rate
12/07/2017 07:56 Ice Warning 20.3F - 29F 32F 5 1% - - 99% 1 mhos 170 - None None - -
12/07/2017 07:53 Ice Warning 20.3F - 29F 32F 5 1% - - 99% 1 mhos 168 - None None - -
12/07/2017 07:46 Ice Warning 19.6F - 29F 32F 5 1% - - 99% 1 mhos 167 - None None - -
12/07/2017 07:38 Ice Warning 19.4F - 29F 32F 5 1% - - 99% 1 mhos 166 - None None - -
12/07/2017 07:36 Ice Warning 19.0F - 29F 32F 5 1% - - 99% 1 mhos 169 - None None - -
12/07/2017 07:26 Ice Warning 19.0F - 29F 32F 5 1% - - 99% 1 mhos 168 - None None - -
12/07/2017 07:23 Ice Warning 19.0F - 29F 32F 5 1% - - 99% 1 mhos 169 - None None - -
12/07/2017 07:16 Ice Warning 19.0F - 29F 32F 5 1% - - 99% 1 mhos 168 - None None - -
12/07/2017 07:08 Ice Warning 18.9F - 29F 32F 5 1% - - 99% 1 mhos 170 - None None - -
12/07/2017 07:06 Ice Warning 18.9F - 29F 32F 5 1% - - 99% 1 mhos 171 - None None - -
12/07/2017 06:56 Ice Warning 18.9F - 29F 32F 5 1% - - 99% 1 mhos 171 - None None - -
12/07/2017 06:53 Ice Warning 18.9F - 29F 32F 5 1% - - 99% 1 mhos 171 - None None - -
12/07/2017 06:46 Ice Warning 18.9F - 29F 32F 5 1% - - 99% 1 mhos 174 - None None - -
12/07/2017 06:39 Ice Warning 19.0F - 29F 32F 5 1% - - 99% 1 mhos 176 - None None - -
12/07/2017 06:36 Ice Warning 19.0F - 29F 32F 5 1% - - 99% 1 mhos 178 - None None - -
Date/Time
(MST)
Sf
Temp Chem Water Layer Surface Precipitation
Sfc Pvt Sub Frz Factor Pct Dpth DpthThk IcePct Cond Salin FI Type Intens Accum Rate
12/07/2017 06:26 Ice Warning 19.4F - 29F 32F 5 1% - - 99% 1 mhos 180 - None None - -
12/07/2017 06:24 Ice Warning 19.4F - 29F 32F 5 1% - - 99% 1 mhos 181 - None None - -
12/07/2017 06:15 Ice Warning 19.9F - 29F 32F 5 1% - - 99% 1 mhos 181 - None None - -
12/07/2017 06:09 Ice Warning 19.9F - 29F 32F 5 1% - - 99% 1 mhos 180 - None None - -
12/07/2017 06:05 Ice Warning 19.9F - 29F 32F 5 1% - - 99% 1 mhos 178 - None None - -
12/07/2017 05:55 Ice Warning 19.8F - 29F 32F 5 1% - - 99% 1 mhos 178 - None None - -
12/07/2017 05:53 Ice Warning 19.9F - 29F 32F 5 1% - - 99% 1 mhos 176 - None None - -
12/07/2017 05:45 Ice Warning 19.6F - 29F 32F 5 1% - - 99% 1 mhos 174 - None None - -
12/07/2017 05:39 Ice Warning 19.2F - 29F 32F 5 1% - - 99% 1 mhos 174 - None None - -
12/07/2017 05:35 Ice Warning 18.9F - 29F 32F 5 1% - - 99% 1 mhos 174 - None None - -
12/07/2017 05:25 Ice Warning 18.3F - 29F 32F 5 1% - - 99% 1 mhos 170 - None None - -
12/07/2017 05:24 Ice Warning 18.1F - 29F 32F 5 1% - - 99% 1 mhos 172 - None None - -
12/07/2017 05:15 Ice Warning 17.6F - 30F 32F 5 1% - - 99% 1 mhos 172 - None None - -
12/07/2017 05:09 Ice Warning 17.2F - 30F 32F 5 1% - - 99% 0 mhos 169 - None None - -
12/07/2017 05:05 Ice Warning 17.1F - 30F 32F 5 1% - - 99% 0 mhos 169 - None None - -
Date/Time
(MST)
Sf
Temp Chem Water Layer Surface Precipitation
Sfc Pvt Sub Frz Factor Pct Dpth DpthThk IcePct Cond Salin FI Type Intens Accum Rate
12/07/2017 04:55 Ice Warning 16.9F - 30F 32F 5 1% - - 99% 0 mhos 170 - None None - -
12/07/2017 04:54 Ice Warning 17.1F - 30F 32F 5 1% - - 99% 0 mhos 170 - None None - -
12/07/2017 04:45 Ice Warning 17.1F - 30F 32F 5 1% - - 99% 0 mhos 169 - None None - -
12/07/2017 04:35 Ice Warning 16.3F - 30F 32F 5 1% - - 99% 0 mhos 172 - None None - -
12/07/2017 04:25 Ice Warning 15.8F - 30F 32F 5 1% - - 99% 0 mhos 173 - None None - -
12/07/2017 04:24 Ice Warning 15.8F - 30F 32F 5 1% - - 99% 0 mhos 173 - None None - -
12/07/2017 04:15 Ice Warning 15.6F - 30F 32F 5 1% - - 99% 0 mhos 171 - None None - -
12/07/2017 04:09 Ice Warning 15.1F - 30F 32F 5 1% - - 99% 0 mhos 172 - None None - -
12/07/2017 04:05 Ice Warning 15.1F - 30F 32F 5 1% - - 99% 0 mhos 172 - None None - -
12/07/2017 03:55 Ice Warning 15.3F - 30F 32F 5 1% - - 99% 0 mhos 167 - None None - -
12/07/2017 03:53 Ice Warning 15.1F - 30F 32F 5 1% - - 99% 0 mhos 173 - None None - -
12/07/2017 03:45 Ice Warning 15.3F - 30F 32F 5 1% - - 99% 0 mhos 167 - None None - -
12/07/2017 03:39 Ice Warning 15.3F - 30F 32F 5 1% - - 99% 0 mhos 169 - None None - -
12/07/2017 03:35 Ice Warning 15.3F - 30F 32F 5 1% - - 99% 0 mhos 170 - None None - -
12/07/2017 03:25 Ice Warning 15.3F - 30F 32F 5 1% - - 99% 0 mhos 173 - None None - -
Date/Time
(MST)
Sf
Temp Chem Water Layer Surface Precipitation
Sfc Pvt Sub Frz Factor Pct Dpth DpthThk IcePct Cond Salin FI Type Intens Accum Rate
12/07/2017 03:23 Ice Warning 15.3F - 30F 32F 5 1% - - 99% 0 mhos 174 - None None - -
12/07/2017 03:15 Ice Warning 15.4F - 30F 32F 5 1% - - 99% 0 mhos 175 - None None - -
12/07/2017 03:09 Ice Warning 15.6F - 30F 32F 5 1% - - 99% 0 mhos 173 - None None - -
12/07/2017 03:05 Ice Warning 15.6F - 30F 32F 5 1% - - 99% 0 mhos 174 - None None - -
12/07/2017 02:55 Ice Warning 16.0F - 30F 32F 5 1% - - 99% 0 mhos 171 - None None - -
12/07/2017 02:53 Ice Warning 16.2F - 30F 32F 5 1% - - 99% 0 mhos 175 - None None - -
12/07/2017 02:45 Ice Warning 16.3F - 30F 32F 5 1% - - 99% 0 mhos 171 - None None - -
12/07/2017 02:38 Ice Warning 16.5F - 30F 32F 5 1% - - 99% 0 mhos 171 - None None - -
12/07/2017 02:35 Ice Warning 16.5F - 30F 32F 5 1% - - 99% 0 mhos 173 - None None - -
12/07/2017 02:25 Ice Warning 16.7F - 30F 32F 5 1% - - 99% 1 mhos 179 - None None - -
12/07/2017 02:23 Ice Warning 16.7F - 30F 32F 5 1% - - 99% 1 mhos 181 - None None - -
12/07/2017 02:15 Ice Warning 17.2F - 30F 32F 5 1% - - 99% 1 mhos 176 - None None - -
12/07/2017 02:09 Ice Warning 17.6F - 30F 32F 5 1% - - 99% 1 mhos 176 - None None - -
12/07/2017 02:05 Ice Warning 17.8F - 30F 32F 5 1% - - 99% 1 mhos 177 - None None - -
12/07/2017 01:55 Ice Warning 18.3F - 30F 32F 5 1% - - 99% 1 mhos 180 - None None - -
Date/Time
(MST)
Sf
Temp Chem Water Layer Surface Precipitation
Sfc Pvt Sub Frz Factor Pct Dpth DpthThk IcePct Cond Salin FI Type Intens Accum Rate
12/07/2017 01:54 Ice Warning 18.5F - 30F 32F 5 1% - - 99% 1 mhos 179 - None None - -
12/07/2017 01:45 Ice Warning 18.9F - 30F 32F 5 1% - - 99% 1 mhos 180 - None None - -
12/07/2017 01:39 Ice Warning 19.0F - 30F 32F 5 1% - - 99% 1 mhos 184 - None None - -
12/07/2017 01:35 Ice Warning 19.2F - 30F 32F 5 1% - - 99% 1 mhos 187 - None None - -
12/07/2017 01:25 Ice Warning 20.3F - 30F 32F 5 1% - - 99% 1 mhos 185 - None None - -
12/07/2017 01:24 Ice Warning 20.3F - 30F 32F 5 1% - - 99% 1 mhos 183 - None None - -
12/07/2017 01:15 Ice Warning 20.5F - 30F 32F 5 1% - - 99% 1 mhos 183 - None None - -
12/07/2017 01:09 Ice Warning 20.5F - 30F 32F 5 1% - - 99% 1 mhos 182 - None None - -
12/07/2017 01:05 Ice Warning 20.5F - 30F 32F 5 1% - - 99% 1 mhos 180 - None None - -
12/07/2017 00:55 Ice Warning 20.3F - 30F 32F 5 1% - - 99% 1 mhos 180 - None None - -
12/07/2017 00:53 Ice Warning 20.3F - 30F 32F 5 1% - - 99% 1 mhos 184 - None None - -
12/07/2017 00:45 Ice Warning 20.3F - 30F 32F 5 1% - - 99% 1 mhos 185 - None None - -
12/07/2017 00:39 Ice Warning 20.7F - 30F 32F 5 1% - - 99% 1 mhos 182 - None None - -
12/07/2017 00:34 Ice Warning 20.5F - 30F 32F 5 1% - - 99% 1 mhos 186 - None None - -
12/07/2017 00:24 Ice Warning 20.8F - 30F 32F 5 1% - - 99% 1 mhos 184 - None None - -
Date/Time
(MST)
Sf
Temp Chem Water Layer Surface Precipitation
Sfc Pvt Sub Frz Factor Pct Dpth DpthThk IcePct Cond Salin FI Type Intens Accum Rate
12/07/2017 00:23 Ice Warning 20.7F - 30F 32F 5 1% - - 99% 1 mhos 185 - None None - -
12/07/2017 00:14 Ice Warning 20.7F - 30F 32F 5 1% - - 99% 1 mhos 184 - None None - -
12/07/2017 00:09 Ice Warning 20.8F - 30F 32F 5 1% - - 99% 1 mhos 182 - None None - -
12/07/2017 00:04 Ice Warning 20.7F - 30F 32F 5 1% - - 99% 1 mhos 184 - None None - -
12/06/2017 23:54 Ice Warning 20.7F - 30F 32F 5 1% - - 99% 1 mhos 186 - None None - -
12/06/2017 23:54 Ice Warning 20.7F - 30F 32F 5 1% - - 99% 1 mhos 186 - None None - -
12/06/2017 23:44 Ice Warning 20.7F - 30F 32F 5 1% - - 99% 1 mhos 183 - None None - -
12/06/2017 23:39 Ice Warning 20.5F - 30F 32F 5 1% - - 99% 1 mhos 182 - None None - -
12/06/2017 23:34 Ice Warning 20.5F - 30F 32F 5 1% - - 99% 1 mhos 183 - None None - -
12/06/2017 23:24 Ice Warning 20.5F - 30F 32F 5 1% - - 99% 1 mhos 181 - None None - -
12/06/2017 23:14 Ice Warning 20.3F - 30F 32F 5 1% - - 99% 1 mhos 181 - None None - -
12/06/2017 23:09 Ice Warning 20.3F - 30F 32F 5 1% - - 99% 1 mhos 181 - None None - -
12/06/2017 23:04 Ice Warning 20.1F - 30F 32F 5 1% - - 99% 1 mhos 182 - None None - -
12/06/2017 22:54 Ice Warning 19.8F - 31F 32F 5 1% - - 99% 1 mhos 182 - None None - -
12/06/2017 22:54 Ice Warning 19.8F - 30F 32F 5 1% - - 99% 1 mhos 182 - None None - -
Date/Time
(MST)
Sf
Temp Chem Water Layer Surface Precipitation
Sfc Pvt Sub Frz Factor Pct Dpth DpthThk IcePct Cond Salin FI Type Intens Accum Rate
12/06/2017 22:44 Ice Warning 19.6F - 31F 32F 5 1% - - 99% 1 mhos 180 - None None - -
12/06/2017 22:39 Ice Warning 19.6F - 31F 32F 5 1% - - 99% 1 mhos 180 - None None - -
12/06/2017 22:34 Ice Warning 19.6F - 31F 32F 5 1% - - 99% 1 mhos 181 - None None - -
12/06/2017 22:24 Ice Warning 19.4F - 31F 32F 5 1% - - 99% 1 mhos 180 - None None - -
12/06/2017 22:24 Ice Warning 19.4F - 31F 32F 5 1% - - 99% 1 mhos 182 - None None - -
12/06/2017 22:14 Ice Warning 19.2F - 31F 32F 5 1% - - 99% 1 mhos 181 - None None - -
12/06/2017 22:10 Ice Warning 19.2F - 31F 32F 5 1% - - 99% 1 mhos 180 - None None - -
12/06/2017 22:04 Ice Warning 19.0F - 31F 32F 5 1% - - 99% 1 mhos 181 - None None - -
12/06/2017 21:54 Ice Warning 18.9F - 31F 32F 5 1% - - 99% 1 mhos 181 - None None - -
12/06/2017 21:54 Ice Warning 18.9F - 31F 32F 5 1% - - 99% 1 mhos 181 - None None - -
12/06/2017 21:44 Ice Warning 18.9F - 31F 32F 5 1% - - 99% 1 mhos 178 - None None - -
12/06/2017 21:39 Ice Warning 18.7F - 31F 32F 5 1% - - 99% 1 mhos 178 - None None - -
12/06/2017 21:34 Ice Warning 18.7F - 31F 32F 5 1% - - 99% 1 mhos 176 - None None - -
12/06/2017 21:24 Ice Warning 18.3F - 31F 32F 5 1% - - 99% 1 mhos 177 - None None - -
12/06/2017 21:24 Ice Warning 18.3F - 31F 32F 5 1% - - 99% 1 mhos 176 - None None - -
Date/Time
(MST)
Sf
Temp Chem Water Layer Surface Precipitation
Sfc Pvt Sub Frz Factor Pct Dpth DpthThk IcePct Cond Salin FI Type Intens Accum Rate
12/06/2017 21:14 Ice Warning 18.1F - 31F 32F 5 1% - - 99% 1 mhos 174 - None None - -
12/06/2017 21:09 Ice Warning 18.1F - 31F 32F 5 1% - - 99% 1 mhos 172 - None None - -
12/06/2017 21:04 Ice Warning 17.8F - 31F 32F 5 1% - - 99% 1 mhos 174 - None None - -
12/06/2017 20:54 Ice Warning 17.8F - 31F 32F 5 1% - - 99% 1 mhos 171 - None None - -
12/06/2017 20:54 Ice Warning 17.8F - 31F 32F 5 1% - - 99% 1 mhos 171 - None None - -
12/06/2017 20:44 Ice Warning 17.8F - 31F 32F 5 1% - - 99% 1 mhos 167 - None None - -
12/06/2017 20:39 Ice Warning 17.6F - 31F 32F 5 1% - - 99% 1 mhos 167 - None None - -
12/06/2017 20:34 Ice Warning 17.4F - 31F 32F 5 1% - - 99% 0 mhos 166 - None None - -
12/06/2017 20:25 Ice Warning 17.4F - 31F 32F 5 1% - - 99% 0 mhos 166 - None None - -
12/06/2017 20:24 Ice Warning 17.4F - 31F 32F 5 1% - - 99% 0 mhos 166 - None None - -
12/06/2017 20:14 Ice Warning 17.8F - 31F 32F 5 1% - - 99% 1 mhos 163 - None None - -
12/06/2017 20:09 Ice Warning 18.0F - 31F 32F 5 1% - - 99% 0 mhos 159 - None None - -
12/06/2017 20:04 Ice Warning 17.6F - 31F 32F 5 1% - - 99% 0 mhos 159 - None None - -
12/06/2017 19:54 Ice Warning 17.6F - 31F 32F 5 1% - - 99% 0 mhos 154 - None None - -
12/06/2017 19:53 Ice Warning 17.6F - 31F 32F 5 1% - - 99% 0 mhos 154 - None None - -
Date/Time
(MST)
Sf
Temp Chem Water Layer Surface Precipitation
Sfc Pvt Sub Frz Factor Pct Dpth DpthThk IcePct Cond Salin FI Type Intens Accum Rate
12/06/2017 19:44 Ice Warning 17.4F - 31F 32F 5 1% - - 99% 0 mhos 151 - None None - -
12/06/2017 19:38 Ice Warning 17.4F - 31F 32F 5 0% - - 99% 0 mhos 150 - None None - -
12/06/2017 19:34 Ice Warning 17.2F - 31F 32F 5 1% - - 99% 0 mhos 151 - None None - -
12/06/2017 19:24 Ice Warning 17.2F - 31F 32F 5 0% - - 99% 0 mhos 148 - None None - -
12/06/2017 19:24 Ice Warning 17.2F - 31F 32F 5 0% - - 99% 0 mhos 149 - None None - -
12/06/2017 19:14 Ice Warning 17.1F - 31F 32F 5 1% - - 99% 0 mhos 150 - None None - -
12/06/2017 19:09 Ice Warning 17.2F - 31F 32F 5 0% - - 99% 0 mhos 147 - None None - -
12/06/2017 19:04 Ice Warning 17.2F - 32F 32F 5 0% - - 99% 0 mhos 149 - None None - -
12/06/2017 18:54 Ice Warning 17.1F - 32F 32F 5 0% - - 99% 0 mhos 149 - None None - -
12/06/2017 18:53 Ice Warning 17.1F - 32F 32F 5 0% - - 99% 0 mhos 149 - None None - -
12/06/2017 18:43 Ice Warning 16.9F - 32F 32F 5 0% - - 99% 0 mhos 148 - None None - -
12/06/2017 18:38 Ice Watch 16.7F - 32F - 5 - - - - 0 mhos 148 - None None - -
12/06/2017 18:33 Dry 16.7F - 32F - - - - - - 0 mhos 147 - None None - -
Change End Date:

Copyright © 1998-2015 Vaisala, Inc.
All Rights Reserved
Send comments about the data to:
SCAN Web ® is a registered trademark of Vaisala, Inc.
SCAN Web Version 6.0